Location: Unspecified
(33.6682°S, 0.0000°E)
Time: 08:44:01
(UTC+00:00)

Vanguard 2 Rocket - Pass Details

Date: 24 June 2019
Orbit: 554 x 3326 km, 32.9° (Epoch: 21 July)

Event Time Altitude Azimuth Distance (km) Brightness Sun altitude
Rises 11:32:36 0° 266° (W) 5,905 10.9 32.5°
Reaches altitude 10° 11:37:11 10° 266° (W) 4,446 10.4 32.6°
Maximum altitude 11:48:13 82° 352° (N) 1,257 8.3 32.8°
Drops below altitude 10° 11:54:17 10° 79° (ENE) 2,542 9.5 32.9°
Sets 11:56:16 0° 79° (E) 3,276 9.9 32.9°
